Regional Weather Roundup
Issued by NWS Raleigh/Durham, NC

Home | Current Version | Previous Version | Text Only | Print | Product List | Glossary On
Versions: 1 2 3 4 5 6 7 8 9 10 11 12 13 14 15 16 17 18 19 20 21 22 23 24 25 26 27 28 29 30 31 32 33 34 35 36 37 38 39 40 41 42 43 44 45 46 47 48 49 50
000
ASUS42 KRAH 011010
RWRRAH
NORTH CAROLINA WEATHER ROUNDUP
NATIONAL WEATHER SERVICE RALEIGH NC
600 AM EDT WED OCT 01 2014

NOTE: "FAIR" INDICATES FEW OR NO CLOUDS BELOW 12,000 FEET WITH NO
SIGNIFICANT WEATHER AND/OR OBSTRUCTIONS TO VISIBILITY.

NCZ001-053-055-056-065-067-011100-
WESTERN NORTH CAROLINA

CITY           SKY/WX    TMP DP  RH WIND       PRES   REMARKS
ASHEVILLE      CLEAR     51  50  96 CALM      30.03R
JEFFERSON      CLEAR     51  50  97 CALM      30.03S
MORGANTON      FOG       50  50 100 CALM      30.01R VSB 3/4
HICKORY        CLEAR     59  56  89 CALM      29.96R
RUTHERFORDTON  CLEAR     57  56  95 NW3       29.97R
MOUNT AIRY     CLEAR     57  54  92 CALM      29.98R
BOONE          CLEAR     45  45 100 CALM      30.04S FOG
$$

NCZ021-022-025-041-071-084-088-011100-
CENTRAL NORTH CAROLINA

CITY           SKY/WX    TMP DP  RH WIND       PRES   REMARKS
CHARLOTTE      CLEAR     59  58  96 CALM      29.95R
GREENSBORO     FOG       60  60 100 NE3       29.95R VSB 1/2
WINSTON-SALEM  PTCLDY    60  58  92 N5        29.96R FOG
RALEIGH-DURHAM PTCLDY    59  57  93 NE5       29.96R FOG
FORT BRAGG     FOG       57  57 100 CALM      29.93S VSB 1
FAYETTEVILLE   FOG       60  60 100 CALM      29.93R VSB 1/4
BURLINGTON     FOG       62  60  93 CALM      29.95R VSB 1/4
LAURINBURG     FOG       57  56  96 CALM      29.94R VSB 3/4
$$

NCZ011-015-027-028-043-044-047-080-103-011100-
NORTHEASTERN NORTH CAROLINA

CITY           SKY/WX    TMP DP  RH WIND       PRES   REMARKS
ROCKY MT-WILSO FOG       59  58  96 N3        29.95R VSB 1/2
GREENVILLE     HVY RAIN  55  55 100 CALM      29.95S VSB 3/4
WASHINGTON     CLEAR     59  59  98 N3        29.93R
ELIZABETH CITY CLEAR     64  63  96 N6        29.91S
MANTEO         CLEAR     67  63  85 N10       29.90S
CAPE HATTERAS  MOCLDY    68  66  93 NE8       29.89R
$$

NCZ078-087-090-091-093-098-101-011100-
SOUTHEASTERN NORTH CAROLINA

CITY           SKY/WX    TMP DP  RH WIND       PRES   REMARKS
LUMBERTON      FOG       60  59  96 CALM      29.92R VSB 1/4
GOLDSBORO      CLEAR     60  60  98 CALM      29.92R
KINSTON        FOG       60  59  99 CALM      29.94R VSB 1/4
KENANSVILLE    CLEAR     59  57  94 CALM      29.94R FOG
NEW BERN       PTCLDY    64  61  88 N5        29.93R
CHERRY POINT   CLOUDY    66  64  93 NE6       29.92R
BEAUFORT       PTCLDY    64  64 100 N3        29.91R
JACKSONVILLE   CLEAR     61  60  97 CALM      29.92R
WILMINGTON     CLOUDY    62  61  96 N3        29.91S FOG
$$




USA.gov is the U.S. government's official web portal to all federal, state and local government web resources and services.